User: anonymous   Login
Location: Via Auriletto, 13, 10098 Rivoli TO, Italia
(45.0746°N, 7.5214°E)
Time: 17:44:36
(UTC+01:00)
Language:

Gurwin Techsat 1B - Orbit

View from above orbital plane
View from above orbital plane
View from above satellite
View from above satellite

Ground track
Ground track

The orbit data is extracted from the following two-line orbital elements,

1 25397U 98043D   19325.29135534 -.00000010  00000-0  15108-4 0  9993
2 25397  98.7045 263.6444 0000833   4.0276 356.0909 14.23674630110014
Epoch (UTC): 21 November 2019 06:59:33
Eccentricity: 0.0000833
inclination: 98.7045°
perigee height: 812 km
apogee height: 813 km
right ascension of ascending node: 263.6444°
argument of perigee: 4.0276°
revolutions per day: 14.23674630
mean anomaly at epoch: 356.0909°
orbit number at epoch: 11001

The dashed part of the orbit path shows where the satellite is in the earth's shadow,  

DLR